Flag for U.S.A. Weather past 2 weeks in Lexington, Virginia, U.S.A.

Now
53 °F

Fog.


Feels Like: 52 °F
Forecast: 53 / 74 °F
Wind: 5 mph from West

Location: Hot Springs / Ingalls

Current Time: Sep 18, 2014 at 7:57:50 AM

Latest Report: Sep 18, 2014 at 7:15 AM


Visibility: 5 mi

Pressure: 30.08 "Hg

Humidity: 91%

Dew point: 50 °F

Location of LexingtonLocation

Historic Weather in Lexington — Graph

°F

Lexington temperature yesterday

Maximum temperature yesterday: 58 °F (at 4:30 PM)
Minimum temperature yesterday: 48 °F (at 6:35 AM)
Average temperature yesterday: 53 °F

Past Weeks' High & Low Weather Summary

 TemperatureHumidityPressure
High76 °F (Sep 5, 3:55 PM)100% (Sep 3, 6:15 AM)30.36 "Hg (Sep 3, 6:15 AM)
Low44 °F (Sep 14, 7:55 AM)46% (Sep 16, 4:15 PM)30.05 "Hg (Sep 18, 1:55 AM)
Average60 °F81%30.21 "Hg
* Reported Sep 3 6:15 AM — Sep 18 6:55 AM, Lexington, Weather by CustomWeather, © 2014

Note: Actual official high and low records may vary slightly from our data, if they occured in-between our weather recording intervals... More about our weather records

Advertising

Lexington weather history for previous 24 hours

 ConditionsComfort  
Time TempWeatherWind HumidityBarometerVisibility
6:55 AM
Sep 18
52 °FMostly cloudy.6 mph91%30.07 "Hg7 mi
6:35 AM53 °FMostly cloudy.6 mph91%30.07 "Hg7 mi
6:15 AM53 °FMostly cloudy.6 mph89%30.07 "Hg10 mi
5:55 AM53 °FMostly cloudy.5 mph82%30.07 "Hg10 mi
5:35 AM52 °FLow clouds.5 mph88%30.07 "Hg10 mi
5:15 AM52 °FLow clouds.6 mph86%30.06 "Hg10 mi
4:55 AM52 °FLow clouds.5 mph84%30.05 "Hg10 mi
4:35 AM52 °FLow clouds.6 mph78%30.05 "Hg10 mi
4:15 AM51 °FPassing clouds.8 mph82%30.05 "Hg10 mi
3:55 AM50 °FClear.9 mph76%30.05 "Hg10 mi
3:35 AM50 °FClear.9 mph74%30.05 "Hg10 mi
3:15 AM50 °FClear.8 mph70%30.05 "Hg10 mi
2:55 AM51 °FClear.8 mph69%30.05 "Hg10 mi
2:35 AM52 °FClear.6 mph65%30.05 "Hg10 mi
2:15 AM52 °FClear.6 mph62%30.05 "Hg10 mi
1:55 AM52 °FPassing clouds.5 mph63%30.05 "Hg10 mi
1:35 AM52 °FPassing clouds.5 mph63%30.06 "Hg10 mi
1:15 AM51 °FPassing clouds.6 mph67%30.07 "Hg10 mi
12:55 AM49 °FClear.6 mph70%30.07 "Hg10 mi
12:15 AM54 °FClear.3 mph55%30.07 "Hg10 mi
11:55 PM
Sep 17
54 °FClear.3 mph54%30.08 "Hg10 mi
11:35 PM55 °FClear.3 mph49%30.08 "Hg10 mi
11:15 PM54 °FClear.5 mph53%30.08 "Hg10 mi
10:55 PM53 °FClear.6 mph62%30.07 "Hg10 mi
10:35 PM52 °FClear.6 mph64%30.07 "Hg10 mi
10:15 PM53 °FClear.6 mph62%30.07 "Hg10 mi
9:55 PM53 °FClear.3 mph56%30.07 "Hg10 mi
9:35 PM53 °FPassing clouds.5 mph57%30.08 "Hg10 mi
9:15 PM53 °FPassing clouds.6 mph60%30.08 "Hg10 mi
8:55 PM53 °FOvercast.7 mph59%30.08 "Hg10 mi
8:35 PM54 °FPassing clouds.7 mph57%30.08 "Hg10 mi
8:15 PM53 °FScattered clouds.5 mph62%30.07 "Hg10 mi
7:55 PM53 °FSunny.6 mph64%30.07 "Hg10 mi
7:15 PM54 °FSunny.3 mph63%30.06 "Hg10 mi
6:55 PM54 °FSunny.5 mph61%30.06 "Hg10 mi
6:35 PM55 °FSunny.5 mph58%30.06 "Hg10 mi
6:15 PM56 °FSunny.6 mph54%30.07 "Hg10 mi
5:55 PM57 °FSunny.3 mph53%30.07 "Hg10 mi
5:35 PM56 °FSunny.5 mph55%30.07 "Hg10 mi
5:15 PM56 °FScattered clouds.5 mph57%30.07 "Hg10 mi
4:55 PM58 °FMore clouds than sun.6 mph50%30.08 "Hg10 mi
4:30 PM58 °FCloudy.6 mph52%30.08 "Hg10 mi
4:15 PM57 °FCloudy.5 mph54%30.09 "Hg10 mi
3:55 PM56 °FMore clouds than sun.6 mph55%30.08 "Hg10 mi
3:35 PM56 °FMostly cloudy.6 mph54%30.08 "Hg10 mi
3:15 PM57 °FCloudy.3 mph54%30.08 "Hg10 mi
2:55 PM56 °FCloudy.6 mph52%30.08 "Hg10 mi
2:35 PM56 °FMostly cloudy.7 mph52%30.08 "Hg10 mi
2:15 PM56 °FMostly cloudy.7 mph51%30.09 "Hg10 mi
1:55 PM55 °FMore clouds than sun.6 mph50%30.09 "Hg10 mi
1:35 PM55 °FMore clouds than sun.7 mph52%30.09 "Hg10 mi
1:15 PM55 °FCloudy.No wind50%30.10 "Hg10 mi
12:55 PM55 °FCloudy.7 mph51%30.10 "Hg10 mi
12:35 PM55 °FCloudy.5 mph51%30.11 "Hg10 mi
12:15 PM55 °FMore clouds than sun.8 mph50%30.11 "Hg10 mi
11:55 AM55 °FCloudy.7 mph50%30.12 "Hg10 mi
11:35 AM53 °FBroken clouds.6 mph53%30.12 "Hg10 mi
11:15 AM54 °FPartly sunny.6 mph50%30.13 "Hg10 mi
10:55 AM52 °FOvercast.6 mph58%30.13 "Hg10 mi
10:35 AM51 °FOvercast.6 mph57%30.13 "Hg10 mi
10:15 AM51 °FMostly cloudy.5 mph56%30.13 "Hg10 mi
9:55 AM52 °FBroken clouds.6 mph54%30.13 "Hg10 mi
9:35 AM52 °FPartly sunny.6 mph57%30.13 "Hg10 mi
9:15 AM51 °FOvercast.6 mph56%30.13 "Hg10 mi
8:55 AM51 °FOvercast.6 mph57%30.13 "Hg10 mi
8:35 AM50 °FPartly sunny.5 mph59%30.12 "Hg10 mi
8:15 AM49 °FPartly sunny.5 mph58%30.12 "Hg10 mi
7:55 AM49 °FMostly cloudy.5 mph60%30.12 "Hg10 mi
7:35 AM48 °FPartly cloudy.5 mph61%30.12 "Hg10 mi
7:15 AM48 °FPartly cloudy.5 mph61%30.12 "Hg10 mi
Weather by CustomWeather, © 2014

See weather overviewHow to use our weather pages